Content
SEND FEEDBACK

Daily
Averages
Monthly
Summary
United States of America

ROSANKY, TEXAS


Home > North America > United States > Texas
Elevation: 460 feet     Latitude: 29 49N     Longitude: 097 19W

WEATHER
 
SELECT A DAY
Number of Records: 313,197;   Date Range: 11/13/01 - 11/23/14
 
SHARE

PRINT THIS DATA

[ ← Previous Day ]
WEATHER ALMANAC - JANUARY 23, 2013
[ Next Day → ]
[ °C ]   °F
Weather ElementAverageHighLow
Temperature62.3 °F75.2 °F (3:55 pm)50 °F (2:55 am)
Dewpoint56.3 °F60.8 °F (7:15 pm)50 °F (2:15 am)
Humidity82.8 %100 % (12:35 am)53 % (1:15 pm)
Barometer30.26 in30.34 in (10:15 am)30.21 in (3:35 pm)
Wind Speed3.3 mph10.4 mph (4:15 pm)
Wind Gust16.1 mph (12:35 pm)
Weather ElementAverage
Visibility6.8 mi
Wind DirectionESE (105.9 °)

Weather ElementTotal
Precipitation---
Heating Degree Days2.4 (Base 65)
Growing Degree Days12.6 (Base 50)
Averaged from 69 records on January 23, 2013
WEATHER CONDITIONS BREAKOUT
WIND DIRECTION BREAKOUT
WEATHER BY HOUR - JANUARY 23, 2013
[ °C ]   °F
Local TimeTemperatureDewpointHumidityBarometerVisibilityWind DirectionWind SpeedGust SpeedPrecipitationEventsConditions
12:35 AM51.8 °F51.8 °F100 %30.27 in10.0 miCalmClear
1:15 AM53.6 °F51.8 °F94 %30.27 in7.0 miCalmClear
1:35 AM53.6 °F51.8 °F94 %30.27 in7.0 miCalmClear
1:55 AM51.8 °F51.8 °F100 %30.27 in5.0 miCalmClear
2:15 AM51.8 °F50.0 °F94 %30.26 in2.5 miCalmMist
2:35 AM51.8 °F51.8 °F100 %30.26 in2.0 miCalmMist
2:55 AM50.0 °F50.0 °F100 %30.26 in3.0 miCalmOvercast
3:15 AM53.6 °F53.6 °F100 %30.26 in1.0 miSouth (190°)3.5 mphOvercast
3:35 AM53.6 °F53.6 °F100 %30.26 in0.2 miSouth (180°)3.5 mphDrizzle
3:55 AM53.6 °F53.6 °F100 %30.26 in0.2 miCalmHeavy Drizzle
4:15 AM53.6 °F53.6 °F100 %30.26 in0.2 miCalmHeavy Drizzle
4:35 AM53.6 °F53.6 °F100 %30.26 in0.2 miCalmLight Drizzle
4:55 AM53.6 °F53.6 °F100 %30.26 in0.2 miCalmFogFog
5:15 AM53.6 °F51.8 °F94 %30.26 in0.2 miCalm
5:35 AM53.6 °F51.8 °F94 %30.26 in0.5 miCalmLight Drizzle
5:55 AM53.6 °F51.8 °F94 %30.26 in0.2 miCalmLight Drizzle
6:15 AM53.6 °F51.8 °F94 %30.27 in0.2 miCalmLight Drizzle
6:55 AM51.8 °F51.8 °F100 %30.28 in0.2 miCalmLight Drizzle
7:15 AM51.8 °F51.8 °F100 %30.28 in0.2 miCalmFogFog
7:35 AM51.8 °F50.0 °F94 %30.28 in0.2 miCalmFogFog
7:55 AM51.8 °F50.0 °F94 %30.28 in0.2 miCalmFogFog
8:15 AM51.8 °F50.0 °F94 %30.30 in0.2 miCalmFogFog
8:35 AM51.8 °F50.0 °F94 %30.30 in0.2 miCalmFogFog
8:55 AM51.8 °F51.8 °F100 %30.31 in0.2 miCalmFogFog
9:15 AM53.6 °F51.8 °F94 %30.31 in1.2 miCalmOvercast
9:35 AM55.4 °F53.6 °F94 %30.33 in1.5 miCalmOvercast
9:55 AM57.2 °F55.4 °F94 %30.33 in5.0 miCalmScattered Clouds
10:15 AM59.0 °F55.4 °F88 %30.34 in10.0 miCalmScattered Clouds
10:35 AM60.8 °F59.0 °F94 %30.33 in10.0 miCalmScattered Clouds
10:55 AM66.2 °F59.0 °F78 %30.33 in10.0 miSSW (200°)6.9 mphClear
11:15 AM69.8 °F59.0 °F68 %30.33 in10.0 miSSW (200°)5.8 mphScattered Clouds
11:35 AM69.8 °F59.0 °F68 %30.32 in10.0 miSSW (210°)8.1 mphScattered Clouds
11:55 AM71.6 °F57.2 °F60 %30.31 in10.0 miSSW (200°)9.2 mphMostly Cloudy
12:15 PM69.8 °F57.2 °F64 %30.30 in10.0 miSSW (200°)4.6 mphScattered Clouds
12:35 PM71.6 °F57.2 °F60 %30.29 in10.0 miSSW (200°)5.8 mph16.1 mphMostly Cloudy
12:55 PM71.6 °F57.2 °F60 %30.28 in10.0 miSouth (190°)4.6 mphOvercast
1:15 PM73.4 °F55.4 °F53 %30.26 in10.0 miSSW (200°)6.9 mphMostly Cloudy
1:35 PM71.6 °F57.2 °F60 %30.25 in10.0 miSW (230°)8.1 mphMostly Cloudy
1:55 PM73.4 °F57.2 °F57 %30.25 in10.0 miSouth (190°)6.9 mphOvercast
2:15 PM73.4 °F57.2 °F57 %30.24 in10.0 miSSW (200°)8.1 mphMostly Cloudy
2:35 PM73.4 °F57.2 °F57 %30.23 in10.0 miSSW (210°)8.1 mphMostly Cloudy
2:55 PM73.4 °F59.0 °F61 %30.23 in10.0 miSouth (190°)4.6 mphMostly Cloudy
3:15 PM73.4 °F59.0 °F61 %30.22 in10.0 miSouth (190°)8.1 mphMostly Cloudy
3:35 PM73.4 °F59.0 °F61 %30.21 in10.0 miSouth (190°)9.2 mphMostly Cloudy
3:55 PM75.2 °F59.0 °F57 %30.21 in10.0 miSSW (210°)6.9 mphScattered Clouds
4:15 PM75.2 °F59.0 °F57 %30.22 in10.0 miSouth (190°)10.4 mphScattered Clouds
4:35 PM73.4 °F59.0 °F61 %30.22 in10.0 miSouth (170°)8.1 mphMostly Cloudy
4:55 PM73.4 °F59.0 °F61 %30.22 in10.0 miSouth (180°)6.9 mphMostly Cloudy
5:15 PM73.4 °F59.0 °F61 %30.22 in10.0 miSouth (180°)4.6 mphMostly Cloudy
5:35 PM73.4 °F59.0 °F61 %30.22 in10.0 miSSE (160°)3.5 mphMostly Cloudy
5:55 PM69.8 °F59.0 °F68 %30.21 in10.0 miSouth (170°)4.6 mphScattered Clouds
6:15 PM68.0 °F59.0 °F73 %30.21 in10.0 miSSE (160°)3.5 mphClear
6:35 PM68.0 °F59.0 °F73 %30.21 in10.0 miSSE (160°)4.6 mphClear
6:55 PM66.2 °F59.0 °F78 %30.21 in10.0 miSSE (150°)3.5 mphClear
7:15 PM68.0 °F60.8 °F78 %30.21 in10.0 miSSE (150°)3.5 mphClear
7:35 PM66.2 °F59.0 °F78 %30.21 in10.0 miSSE (150°)3.5 mphClear
7:55 PM64.4 °F59.0 °F83 %30.21 in10.0 miSSE (160°)5.8 mphClear
8:15 PM64.4 °F60.8 °F88 %30.21 in10.0 miSSE (150°)5.8 mphClear
8:35 PM64.4 °F60.8 °F88 %30.22 in10.0 miSSE (150°)4.6 mphClear
8:55 PM64.4 °F60.8 °F88 %30.22 in10.0 miSSE (160°)5.8 mphClear
9:15 PM64.4 °F60.8 °F88 %30.22 in10.0 miSouth (170°)4.6 mphClear
9:35 PM64.4 °F60.8 °F88 %30.23 in10.0 miSouth (170°)5.8 mphClear
9:55 PM62.6 °F60.8 °F94 %30.22 in10.0 miSouth (190°)4.6 mphClear
10:15 PM62.6 °F60.8 °F94 %30.23 in10.0 miCalmClear
10:35 PM62.6 °F60.8 °F94 %30.23 in10.0 miSouth (190°)4.6 mphClear
10:55 PM62.6 °F60.8 °F94 %30.23 in10.0 miSSW (200°)3.5 mphClear
11:15 PM62.6 °F60.8 °F94 %30.23 in10.0 miSouth (190°)3.5 mphClear
11:35 PM62.6 °F60.8 °F94 %30.22 in10.0 miSouth (180°)4.6 mphClear
11:55 PM62.6 °F60.8 °F94 %30.22 in10.0 miCalmClear
Hourly data recorded from K3T5, located miles away from Rosanky, Texas







STORIES FROM OUR PARTNERS